User: anonymous   Login
Location: ?
(35.4064°N, 139.3593°E)
Time: 14:28:54
(UTC+00:00)
Language:

H-2A R/B - Orbit

View from above orbital plane
View from above orbital plane
View from above satellite
View from above satellite

Ground track
Ground track

The orbit data is extracted from the following two-line orbital elements,

1 36105U 09066B   24176.92715293  .00044071  00000-0  77388-3 0  9996
2 36105  97.3895 163.3596 0014065  19.5623 340.6166 15.50290539804213
Epoch (UTC): 24 June 2024 22:15:06
Eccentricity: 0.0014065
inclination: 97.3895°
perigee height: 406 km
apogee height: 425 km
right ascension of ascending node: 163.3596°
argument of perigee: 19.5623°
revolutions per day: 15.50290539
mean anomaly at epoch: 340.6166°
orbit number at epoch: 80421

The dashed part of the orbit path shows where the satellite is in the earth's shadow,  

DLR